STARLINK-11168, 60183

Orbit data source: Space-Track

STARLINK-11168, 60183 is a payload satellite owned by SpaceX/Seattle (US) in LEO that was launched on Wed, 03 Jul 2024 UTC via an FALCON 9 launch vehicle from the Air Force Eastern Test Range (AFETR). Payload-class satellites include a variety of spacecraft equipped with specific instruments for various scientific and technological missions. These include communications satellites like Starlink; space stations such as the ISS; scientific satellites like the Hubble; Earth observation satellites from companies like Planet Labs, Umbra, and HawkEye 360; GPS; miniature CubeSats for education and research; and military/defense satellites.

Not visible in the next 10 days
Identifier
60183, 2024-124A
Orbit
LEO
Country
Flag of USUS
Related business
Manufacturer
SpaceX/Seattle
Mission
Operational Commercial Communications
Bus & Motor
STARLINK V2MD, Unknown motor
Mass
960 kg wet, ~910 kg dry
Launch date (UTC)
2024-07-03 (1 year ago)
Launch vehicle
FALCON 9
Launch site
Air Force Eastern Test Range (AFETR)
Object type
Payload
Rocket body
Debris
Shape & HBR
Box + 2 Pan, 14.5 m
Radar Cross Section
36.964 m², Large (>1 m²)

Expand to show TLE details & history
Last TLE update: 23 hours ago

TLE from 23 hours ago
0 STARLINK-11168
1 60183U 24124A   25257.44310464  .00000941  00000-0  12620-4 0  9997
2 60183  53.1596 310.0110 0001082  77.3586 282.7553 15.69710859 70046
Epoch: 2025-09-14T10:38Z
TLE epoch observation values (Epoch: 2025-09-14T10:38:04.24Z)
Latitude
-0.00003°
Longitude
156.83127°
Altitude
360.478 km
Speed
7.694 km/s
True Right ascension
20h 40m 02s
True Declination
0° 00' 00"
Sunlit
Object was in full shadow at epoch
Visualization orbit readout
Latitude
Unknown
Longitude
Unknown
Altitude
Unknown
Speed
Unknown
Apparent Right ascension
Unknown
Apparent Declination
Unknown
Sunlit
N/A
Visualization observer readout
Local Sidereal Time
02:08:58
Azimuth
Unknown
Elevation
Unknown
Doppler factor
Unknown
Orbital elements
Apogee altitude
360.714 km
Perigee altitude
359.256 km
Semi-major axis
6,738.122 km
Eccentricity
0.00011
Inclination
53.1596°
RAAN
310.011°
Arg. of periapsis
77.3586°
True anomaly
282.74321°
Mean anomaly
282.7553°
Eccentric anomaly
282.74925°
Mean motion
3.92405 °/min
Orbital period
91.74 mins
BSTAR
0.00001262
Loading maneuver chart data...
Computing Atmospheric mass density...
Loading historical data...
Loading historical data...
Loading historical data...
Loading historical data...
Loading historical data...
Loading historical data...
Loading historical data...

Documentation

Showing up to 5 results
|